User: anonymous   Login
Location: Unspecified
(0.0000°N, 0.0000°E)
Time: 08:47:03
(UTC+00:00)
Language:

PLEIADES HR1 - Orbit

View from above orbital plane
View from above orbital plane
View from above satellite
View from above satellite

Ground track
Ground track

The orbit data is extracted from the following two-line orbital elements,

1 38012U 11076F   15108.16105831  .00000311  00000-0  76705-4 0  9993
2 38012 098.1976 183.6999 0001060 102.2729 257.7520 14.58524575177550
Epoch (UTC): 18 April 2015 03:51:55
Eccentricity: 0.0001060
inclination: 98.1976°
perigee height: 697 km
apogee height: 698 km
right ascension of ascending node: 183.6999°
argument of perigee: 102.2729°
revolutions per day: 14.58524575
mean anomaly at epoch: 257.7520°
orbit number at epoch: 17755

The dashed part of the orbit path shows where the satellite is in the earth's shadow,  

DLR